PST,Max TemperatureF,Mean TemperatureF,Min TemperatureF,Max Dew PointF,MeanDew PointF,Min DewpointF,Max Humidity, Mean Humidity, Min Humidity, Max Sea Level PressureIn, Mean Sea Level PressureIn, Min Sea Level PressureIn, Max VisibilityMiles, Mean VisibilityMiles, Min VisibilityMiles, Max Wind SpeedMPH, Mean Wind SpeedMPH, Max Gust SpeedMPH,PrecipitationIn, CloudCover, Events, WindDirDegrees
2012-2-1,37,33,29,35,32,29,100,88,75,30.34,30.04,29.91,10,5,0,21,6,25,0.28,8,Fog-Rain-Snow,189
2012-2-2,36,32,27,31,28,27,100,91,82,30.51,30.41,30.28,10,4,0,9,4,10,0.00,5,Fog,99
2012-2-3,41,34,26,30,27,25,100,80,60,30.47,30.40,30.31,10,5,0,14,7,16,0.00,4,Fog,36
2012-2-4,42,34,26,29,26,24,92,76,59,30.45,30.39,30.35,10,10,10,12,8,14,0.00,0,,45
2012-2-5,42,34,25,27,25,23,85,70,55,30.41,30.36,30.26,10,10,10,13,7,17,0.00,1,,45
2012-2-6,46,36,25,27,24,21,88,69,49,30.32,30.26,30.16,10,10,10,18,9,23,0.00,4,,49
2012-2-7,44,36,28,22,21,19,69,53,37,30.20,30.14,30.07,10,10,10,20,8,23,0.00,2,,53
2012-2-8,34,31,28,31,27,19,92,78,63,30.39,30.28,30.13,10,6,0,13,5,17,0.02,8,Fog-Snow,65
2012-2-9,37,34,31,34,32,30,100,96,92,30.42,30.34,30.19,10,3,0,10,5,13,0.02,8,Fog-Rain-Snow,37
2012-2-10,39,36,33,37,34,32,100,93,85,30.24,30.14,30.05,10,6,0,13,7,15,0.04,7,Rain,42
2012-2-11,38,35,32,38,35,31,100,95,89,30.12,30.07,30.02,10,5,0,8,3,12,0.10,8,Fog-Rain-Snow,194
2012-2-12,39,37,34,36,34,33,100,90,79,30.07,29.96,29.87,10,6,0,12,4,13,T,8,Fog-Rain,187
2012-2-13,42,36,30,35,33,28,100,85,70,29.95,29.90,29.83,10,6,0,17,5,21,T,6,Fog-Rain,240
2012-2-14,31,28,24,30,27,24,100,96,92,30.07,29.94,29.84,10,2,0,10,5,13,0.07,7,Fog-Snow,99
2012-2-15,37,31,25,29,26,24,100,82,64,30.38,30.25,30.06,10,7,0,13,6,15,0.00,5,Fog,188
2012-2-16,35,30,24,31,28,22,100,85,69,30.36,30.26,30.16,10,6,0,10,4,15,0.02,7,Fog-Snow,89
2012-2-17,39,34,28,36,30,28,100,91,82,30.32,30.17,29.83,10,4,0,28,7,33,0.20,8,Fog-Rain,53
2012-2-18,40,36,32,34,30,27,100,82,64,29.99,29.93,29.86,10,7,0,30,19,39,0.04,8,Fog-Rain-Snow,211
2012-2-19,41,35,29,30,26,20,92,73,54,29.97,29.93,29.86,10,8,2,22,13,24,0.01,6,Fog-Snow,213
2012-2-20,35,32,29,31,28,21,92,81,69,30.02,29.95,29.89,10,7,2,12,6,15,0.03,8,Snow,186
2012-2-21,48,40,32,43,36,32,100,85,70,29.99,29.91,29.82,10,6,0,24,13,31,0.13,8,Fog-Rain-Snow,218
2012-2-22,48,39,29,38,30,19,82,58,34,30.07,29.85,29.70,10,10,10,43,22,53,0.00,4,,248
2012-2-23,43,35,26,28,24,21,85,67,49,30.28,30.22,30.10,10,10,10,16,9,20,0.00,4,,209
2012-2-24,42,35,28,32,25,22,85,66,46,30.24,29.95,29.56,10,9,2,17,8,22,0.15,7,Rain-Snow,149
2012-2-25,39,33,27,36,29,21,100,81,61,30.02,29.70,29.50,10,5,0,38,22,44,0.32,8,Fog-Rain-Snow,217
2012-2-26,33,27,20,25,23,19,100,81,61,30.15,30.08,30.00,10,7,0,22,9,29,0.03,6,Fog-Snow,207
2012-2-27,32,21,9,22,13,3,96,72,47,30.19,30.13,30.06,10,8,0,10,3,14,T,2,Fog,2
2012-2-28,29,18,6,21,17,3,96,83,69,30.05,29.92,29.66,10,7,0,16,7,20,0.00,7,Fog,67
2012-2-29,37,33,28,31,26,21,92,73,54,29.73,29.65,29.52,10,7,0,28,14,32,0.22,7,Fog-Snow,191